Torna al catalogo

STARLINK-31343

AttivoComunicazioniVLEO
NORAD 59093·PAYLOAD·🇺🇸 United States

Lanciato Feb 29, 2024 da Cape Canaveral Space Force Station

Loading…

Prossimi Passaggi (prossime 24 ore)

TLE

AggiornatoSource: CelesTrak SupGP

Epoca: Sep 14, 2026, 21:41 UTC

1 59093C 24041V   26257.90395833 -.00021447  00000+0 -77679-3 0  2574
2 59093  43.0021 322.3793 0001578 272.0510 184.4430 15.27589921    19

Traccia STARLINK-31343 in tempo reale con AllMySat

Download on the App Store